• In Czech Republic
  • List of Countries
  • For 7 days
  • Water Temperature
  • Satellite Maps
  • Weather Map
  • Weather Widgets
  • user-avatar
    Login

    Hourly Weather Lubango

    Today, 22 August, Tuesday

    Time Temperature Precipitation Wind Pressure Humidity
    00:00 +15°C° 0 mm 2 mps 609 mmHg 33%
    01:00 +15°C° 0 mm 2 mps 609 mmHg 30%
    02:00 +14°C° 0 mm 2 mps 609 mmHg 28%
    03:00 +14°C° 0 mm 2 mps 609 mmHg 26%
    04:00 +14°C° 0 mm 2 mps 608 mmHg 23%
    05:00 +14°C° 0 mm 2 mps 609 mmHg 23%
    06:00 +14°C° 0 mm 2 mps 609 mmHg 22%
    07:00 +15°C° 0 mm 2 mps 609 mmHg 22%
    08:00 +18°C° 0 mm 3 mps 611 mmHg 19%
    09:00 +22°C° 0 mm 4 mps 612 mmHg 16%
    10:00 +27°C° 0 mm 4 mps 614 mmHg 13%
    11:00 +28°C° 0 mm 4 mps 613 mmHg 12%
    12:00 +29°C° 0 mm 4 mps 613 mmHg 10%
    13:00 +30°C° 0 mm 3 mps 613 mmHg 9%
    14:00 +30°C° 0 mm 3 mps 613 mmHg 9%
    15:00 +30°C° 0 mm 3 mps 612 mmHg 9%
    16:00 +30°C° 0 mm 3 mps 612 mmHg 9%
    17:00 +27°C° 0 mm 3 mps 611 mmHg 14%
    18:00 +23°C° 0 mm 2 mps 610 mmHg 19%
    19:00 +19°C° 0 mm 2 mps 609 mmHg 24%
    20:00 +19°C° 0 mm 1 mps 609 mmHg 28%
    21:00 +16°C° 0 mm 1 mps 608 mmHg 31%
    22:00 +15°C° 0 mm 1 mps 608 mmHg 35%
    23:00 +15°C° 0 mm 1 mps 608 mmHg 34%

    Tomorrow, 23 August, Wednesday

    Time Temperature Precipitation Wind Pressure Humidity
    00:00 +14°C° 0 mm 1 mps 608 mmHg 33%
    01:00 +14°C° 0 mm 1 mps 608 mmHg 32%
    02:00 +14°C° 0 mm 1 mps 607 mmHg 31%
    03:00 +13°C° 0 mm 1 mps 607 mmHg 30%
    04:00 +13°C° 0 mm 1 mps 607 mmHg 29%
    05:00 +13°C° 0 mm 1 mps 607 mmHg 28%
    06:00 +14°C° 0 mm 1 mps 608 mmHg 27%
    07:00 +14°C° 0 mm 1 mps 608 mmHg 26%
    08:00 +18°C° 0 mm 2 mps 610 mmHg 22%
    09:00 +22°C° 0 mm 3 mps 612 mmHg 18%
    10:00 +26°C° 0 mm 3 mps 613 mmHg 13%
    11:00 +28°C° 0 mm 3 mps 613 mmHg 13%
    12:00 +29°C° 0 mm 3 mps 613 mmHg 12%
    13:00 +30°C° 0 mm 3 mps 612 mmHg 11%
    14:00 +29°C° 0 mm 3 mps 612 mmHg 13%
    15:00 +29°C° 0 mm 3 mps 611 mmHg 15%
    16:00 +28°C° 0 mm 3 mps 611 mmHg 16%
    17:00 +25°C° 0 mm 2 mps 610 mmHg 28%
    18:00 +20°C° 0 mm 2 mps 609 mmHg 40%
    19:00 +17°C° 0 mm 2 mps 608 mmHg 51%
    20:00 +16°C° 0 mm 2 mps 608 mmHg 58%
    21:00 +15°C° 0 mm 1 mps 609 mmHg 64%
    22:00 +14°C° 0 mm 1 mps 609 mmHg 71%
    23:00 +13°C° 0 mm 1 mps 608 mmHg 71%

    Day after tomorrow, 24 August, Thursday

    Time Temperature Precipitation Wind Pressure Humidity
    00:00 +13°C° 0 mm 1 mps 608 mmHg 71%
    01:00 +13°C° 0 mm 1 mps 608 mmHg 71%
    02:00 +12°C° 0 mm 1 mps 608 mmHg 70%
    03:00 +12°C° 0 mm 1 mps 607 mmHg 69%
    04:00 +12°C° 0 mm 1 mps 607 mmHg 68%
    05:00 +12°C° 0 mm 1 mps 607 mmHg 62%
    06:00 +13°C° 0 mm 1 mps 608 mmHg 57%
    07:00 +13°C° 0 mm 1 mps 608 mmHg 51%
    08:00 +18°C° 0 mm 1 mps 610 mmHg 41%
    09:00 +21°C° 0 mm 2 mps 611 mmHg 32%
    10:00 +25°C° 0 mm 3 mps 613 mmHg 22%
    11:00 +26°C° 0 mm 3 mps 613 mmHg 21%
    12:00 +27°C° 0 mm 3 mps 613 mmHg 19%
    13:00 +28°C° 0 mm 3 mps 612 mmHg 18%
    14:00 +28°C° 0 mm 3 mps 612 mmHg 20%
    15:00 +27°C° 0 mm 3 mps 611 mmHg 23%
    16:00 +26°C° 0 mm 3 mps 610 mmHg 26%
    17:00 +22°C° 0 mm 3 mps 610 mmHg 37%
    18:00 +19°C° 0 mm 2 mps 609 mmHg 49%
    19:00 +16°C° 0 mm 2 mps 609 mmHg 60%
    20:00 +15°C° 0 mm 1 mps 609 mmHg 65%
    21:00 +14°C° 0 mm 1 mps 609 mmHg 70%
    22:00 +13°C° 0 mm 1 mps 609 mmHg 76%
    23:00 +13°C° 0 mm 1 mps 608 mmHg 75%

    25 August, Friday

    Time Temperature Precipitation Wind Pressure Humidity
    00:00 +12°C° 0 mm 1 mps 608 mmHg 75%
    01:00 +12°C° 0 mm 1 mps 608 mmHg 75%
    02:00 +12°C° 0 mm 1 mps 607 mmHg 75%
    03:00 +12°C° 0 mm 1 mps 607 mmHg 75%
    04:00 +11°C° 0 mm 1 mps 607 mmHg 75%
    05:00 +12°C° 0 mm 1 mps 608 mmHg 72%
    06:00 +11°C° 0 mm 0 mps 608 mmHg 68%
    07:00 +12°C° 0 mm 0 mps 609 mmHg 65%
    08:00 +16°C° 0 mm 1 mps 610 mmHg 51%
    09:00 +20°C° 0 mm 2 mps 612 mmHg 38%
    10:00 +25°C° 0 mm 3 mps 613 mmHg 24%
    11:00 +26°C° 0 mm 3 mps 613 mmHg 22%
    12:00 +27°C° 0 mm 3 mps 612 mmHg 19%
    13:00 +29°C° 0 mm 3 mps 612 mmHg 17%
    14:00 +28°C° 0 mm 3 mps 611 mmHg 18%
    15:00 +28°C° 0 mm 3 mps 611 mmHg 20%
    16:00 +27°C° 0 mm 3 mps 610 mmHg 21%
    17:00 +24°C° 0 mm 3 mps 610 mmHg 30%
    18:00 +20°C° 0 mm 2 mps 609 mmHg 39%
    19:00 +17°C° 0 mm 2 mps 608 mmHg 48%
    20:00 +16°C° 0 mm 1 mps 608 mmHg 52%
    21:00 +15°C° 0 mm 1 mps 608 mmHg 56%
    22:00 +14°C° 0 mm 1 mps 608 mmHg 60%
    23:00 +14°C° 0 mm 1 mps 608 mmHg 59%

    26 August, Saturday

    Time Temperature Precipitation Wind Pressure Humidity
    00:00 +14°C° 0 mm 1 mps 608 mmHg 58%
    01:00 +13°C° 0 mm 1 mps 607 mmHg 58%
    02:00 +13°C° 0 mm 1 mps 607 mmHg 57%
    03:00 +13°C° 0 mm 1 mps 607 mmHg 57%
    04:00 +12°C° 0 mm 1 mps 607 mmHg 57%
    05:00 +13°C° 0 mm 1 mps 608 mmHg 53%
    06:00 +13°C° 0 mm 1 mps 608 mmHg 49%
    07:00 +14°C° 0 mm 1 mps 609 mmHg 45%
    08:00 +18°C° 0 mm 2 mps 610 mmHg 35%
    09:00 +21°C° 0 mm 2 mps 612 mmHg 24%
    10:00 +26°C° 0 mm 2 mps 614 mmHg 14%
    11:00 +28°C° 0 mm 3 mps 613 mmHg 13%
    12:00 +29°C° 0 mm 3 mps 613 mmHg 12%
    13:00 +30°C° 0 mm 3 mps 613 mmHg 11%
    14:00 +30°C° 0 mm 3 mps 612 mmHg 12%
    15:00 +29°C° 0 mm 3 mps 612 mmHg 13%
    16:00 +29°C° 0 mm 3 mps 611 mmHg 14%
    17:00 +25°C° 0 mm 3 mps 610 mmHg 23%
    18:00 +21°C° 0 mm 2 mps 609 mmHg 31%
    19:00 +17°C° 0 mm 2 mps 608 mmHg 39%
    20:00 +16°C° 0 mm 2 mps 608 mmHg 43%
    21:00 +15°C° 0 mm 2 mps 608 mmHg 48%
    22:00 +14°C° 0 mm 1 mps 608 mmHg 52%
    23:00 +13°C° 0 mm 1 mps 608 mmHg 53%

    27 August, Sunday

    Time Temperature Precipitation Wind Pressure Humidity
    00:00 +13°C° 0 mm 1 mps 608 mmHg 55%
    01:00 +12°C° 0 mm 1 mps 607 mmHg 57%
    02:00 +12°C° 0 mm 1 mps 607 mmHg 57%
    03:00 +12°C° 0 mm 1 mps 607 mmHg 56%
    04:00 +11°C° 0 mm 1 mps 607 mmHg 56%
    05:00 +12°C° 0 mm 1 mps 608 mmHg 52%
    06:00 +12°C° 0 mm 1 mps 608 mmHg 47%
    07:00 +13°C° 0 mm 1 mps 609 mmHg 42%
    08:00 +17°C° 0 mm 2 mps 611 mmHg 32%
    09:00 +21°C° 0 mm 3 mps 612 mmHg 22%
    10:00 +26°C° 0 mm 4 mps 614 mmHg 12%
    11:00 +28°C° 0 mm 4 mps 613 mmHg 10%
    12:00 +29°C° 0 mm 4 mps 613 mmHg 9%
    13:00 +32°C° 0 mm 4 mps 613 mmHg 7%
    14:00 +32°C° 0 mm 4 mps 613 mmHg 8%
    15:00 +30°C° 0 mm 4 mps 612 mmHg 10%
    16:00 +30°C° 0 mm 4 mps 612 mmHg 11%
    17:00 +26°C° 0 mm 3 mps 611 mmHg 19%
    18:00 +21°C° 0 mm 2 mps 610 mmHg 28%
    19:00 +17°C° 0 mm 2 mps 609 mmHg 36%
    20:00 +16°C° 0 mm 1 mps 608 mmHg 41%
    21:00 +15°C° 0 mm 1 mps 608 mmHg 45%
    22:00 +14°C° 0 mm 1 mps 608 mmHg 49%
    23:00 +14°C° 0 mm 1 mps 608 mmHg 49%
    Show more